When you browse on this site, cookies collect data to enhance your experience and personalize the content and advertising you see.
Visit our Privacy Policy to learn more. By continuing to use the site, you agree to this use of cookies and data.

Meteo pe oră la Dromore

Astăzi, 12 Iulie, Duminică

Timp Temperatura Precipitaţii Vânt Presiune Umiditate
00:00 +11°C° 0 mm 1 m/s 760 mmHg 89%
01:00 +10°C° 0 mm 1 m/s 760 mmHg 90%
02:00 +10°C° 0 mm 1 m/s 760 mmHg 91%
03:00 +10°C° 0 mm 1 m/s 759 mmHg 93%
04:00 +10°C° 0 mm 1 m/s 759 mmHg 92%
05:00 +11°C° 0 mm 1 m/s 759 mmHg 91%
06:00 +12°C° 0 mm 1 m/s 759 mmHg 90%
07:00 +13°C° 0 mm 2 m/s 759 mmHg 86%
08:00 +14°C° 0 mm 2 m/s 759 mmHg 82%
09:00 +16°C° 0 mm 3 m/s 759 mmHg 78%
10:00 +16°C° 0 mm 3 m/s 759 mmHg 75%
11:00 +17°C° 0 mm 4 m/s 759 mmHg 72%
12:00 +17°C° 0 mm 4 m/s 759 mmHg 70%
13:00 +17°C° 0 mm 4 m/s 759 mmHg 71%
14:00 +17°C° 0 mm 4 m/s 759 mmHg 72%
15:00 +17°C° 0 mm 4 m/s 758 mmHg 74%
16:00 +15°C° 0 mm 4 m/s 758 mmHg 77%
17:00 +15°C° 0 mm 4 m/s 758 mmHg 79%
18:00 +15°C° 0 mm 4 m/s 758 mmHg 82%
19:00 +14°C° 0 mm 3 m/s 757 mmHg 84%
20:00 +14°C° 0 mm 3 m/s 757 mmHg 86%
21:00 +14°C° 0 mm 3 m/s 757 mmHg 88%
22:00 +14°C° 0.1 mm 4 m/s 757 mmHg 89%
23:00 +14°C° 0.1 mm 4 m/s 757 mmHg 90%

Mâine, 13 Iulie, Luni

Timp Temperatura Precipitaţii Vânt Presiune Umiditate
00:00 +14°C° 0.1 mm 4 m/s 756 mmHg 91%
01:00 +14°C° 0 mm 4 m/s 756 mmHg 92%
02:00 +14°C° 0 mm 4 m/s 756 mmHg 93%
03:00 +14°C° 0 mm 4 m/s 755 mmHg 94%
04:00 +14°C° 0.1 mm 4 m/s 755 mmHg 93%
05:00 +14°C° 0.1 mm 4 m/s 755 mmHg 93%
06:00 +14°C° 0.1 mm 4 m/s 755 mmHg 92%
07:00 +14°C° 0 mm 4 m/s 755 mmHg 90%
08:00 +15°C° 0 mm 4 m/s 755 mmHg 88%
09:00 +15°C° 0 mm 4 m/s 755 mmHg 86%
10:00 +15°C° 0.1 mm 4 m/s 755 mmHg 85%
11:00 +15°C° 0.1 mm 4 m/s 754 mmHg 84%
12:00 +17°C° 0.1 mm 4 m/s 754 mmHg 84%
13:00 +17°C° 0.1 mm 4 m/s 754 mmHg 84%
14:00 +17°C° 0.1 mm 3 m/s 754 mmHg 83%
15:00 +17°C° 0.1 mm 3 m/s 754 mmHg 83%
16:00 +17°C° 0.1 mm 3 m/s 754 mmHg 84%
17:00 +17°C° 0.1 mm 3 m/s 753 mmHg 85%
18:00 +16°C° 0.1 mm 3 m/s 753 mmHg 86%
19:00 +14°C° 0.1 mm 3 m/s 753 mmHg 89%
20:00 +13°C° 0.1 mm 3 m/s 754 mmHg 91%
21:00 +12°C° 0.1 mm 2 m/s 754 mmHg 94%
22:00 +10°C° 0 mm 2 m/s 754 mmHg 94%
23:00 +9°C° 0 mm 2 m/s 753 mmHg 94%

Poimâine, 14 Iulie, Marţi

Timp Temperatura Precipitaţii Vânt Presiune Umiditate
00:00 +9°C° 0 mm 2 m/s 753 mmHg 94%
01:00 +9°C° 0 mm 2 m/s 753 mmHg 93%
02:00 +9°C° 0 mm 3 m/s 753 mmHg 93%
03:00 +9°C° 0 mm 3 m/s 753 mmHg 93%
04:00 +9°C° 0 mm 3 m/s 753 mmHg 92%
05:00 +10°C° 0 mm 3 m/s 753 mmHg 91%
06:00 +10°C° 0 mm 3 m/s 753 mmHg 91%
07:00 +11°C° 0 mm 3 m/s 753 mmHg 89%
08:00 +11°C° 0 mm 3 m/s 753 mmHg 87%
09:00 +12°C° 0 mm 3 m/s 753 mmHg 86%
10:00 +12°C° 0.1 mm 3 m/s 753 mmHg 87%
11:00 +11°C° 0.1 mm 3 m/s 752 mmHg 89%
12:00 +11°C° 0.1 mm 3 m/s 752 mmHg 91%
13:00 +11°C° 0.1 mm 3 m/s 752 mmHg 92%
14:00 +11°C° 0.1 mm 3 m/s 752 mmHg 93%
15:00 +11°C° 0.1 mm 3 m/s 751 mmHg 94%
16:00 +11°C° 0.3 mm 3 m/s 751 mmHg 95%
17:00 +11°C° 0.3 mm 3 m/s 751 mmHg 96%
18:00 +12°C° 0.3 mm 3 m/s 751 mmHg 97%
19:00 +12°C° 0.3 mm 3 m/s 750 mmHg 97%
20:00 +12°C° 0.3 mm 3 m/s 750 mmHg 97%
21:00 +13°C° 0.3 mm 2 m/s 750 mmHg 98%
22:00 +12°C° 0.1 mm 3 m/s 750 mmHg 98%
23:00 +12°C° 0.1 mm 3 m/s 750 mmHg 97%

15 Iulie, Miercuri

Timp Temperatura Precipitaţii Vânt Presiune Umiditate
00:00 +13°C° 0.1 mm 3 m/s 750 mmHg 97%
01:00 +13°C° 0.2 mm 3 m/s 750 mmHg 97%
02:00 +13°C° 0.2 mm 3 m/s 750 mmHg 97%
03:00 +13°C° 0.2 mm 4 m/s 750 mmHg 97%
04:00 +13°C° 0.2 mm 4 m/s 750 mmHg 97%
05:00 +13°C° 0.2 mm 4 m/s 750 mmHg 97%
06:00 +13°C° 0.2 mm 4 m/s 750 mmHg 97%
07:00 +13°C° 0 mm 4 m/s 751 mmHg 96%
08:00 +13°C° 0 mm 4 m/s 751 mmHg 95%
09:00 +14°C° 0 mm 4 m/s 751 mmHg 95%
10:00 +14°C° 0 mm 4 m/s 752 mmHg 93%
11:00 +15°C° 0 mm 4 m/s 752 mmHg 92%
12:00 +15°C° 0 mm 4 m/s 752 mmHg 90%
13:00 +15°C° 0 mm 4 m/s 753 mmHg 89%
14:00 +17°C° 0 mm 4 m/s 753 mmHg 88%
15:00 +17°C° 0 mm 4 m/s 753 mmHg 87%
16:00 +17°C° 0 mm 3 m/s 753 mmHg 88%
17:00 +16°C° 0 mm 3 m/s 753 mmHg 89%
18:00 +16°C° 0 mm 3 m/s 753 mmHg 90%
19:00 +16°C° 0 mm 3 m/s 754 mmHg 90%
20:00 +16°C° 0 mm 3 m/s 754 mmHg 90%
21:00 +14°C° 0 mm 3 m/s 754 mmHg 90%
22:00 +14°C° 0 mm 3 m/s 754 mmHg 91%
23:00 +13°C° 0 mm 3 m/s 755 mmHg 92%

16 Iulie, Joi

Timp Temperatura Precipitaţii Vânt Presiune Umiditate
00:00 +13°C° 0 mm 3 m/s 755 mmHg 93%
01:00 +12°C° 0 mm 3 m/s 755 mmHg 94%
02:00 +12°C° 0 mm 3 m/s 755 mmHg 95%
03:00 +11°C° 0 mm 3 m/s 755 mmHg 97%
04:00 +12°C° 0 mm 3 m/s 755 mmHg 96%
05:00 +13°C° 0 mm 2 m/s 755 mmHg 95%
06:00 +14°C° 0 mm 2 m/s 755 mmHg 93%
07:00 +15°C° 0 mm 2 m/s 755 mmHg 91%
08:00 +15°C° 0 mm 2 m/s 755 mmHg 89%
09:00 +16°C° 0 mm 3 m/s 755 mmHg 87%
10:00 +17°C° 0 mm 3 m/s 756 mmHg 86%
11:00 +17°C° 0 mm 3 m/s 756 mmHg 85%
12:00 +18°C° 0 mm 4 m/s 756 mmHg 84%
13:00 +19°C° 0.1 mm 4 m/s 756 mmHg 83%
14:00 +19°C° 0.1 mm 4 m/s 756 mmHg 82%
15:00 +20°C° 0.1 mm 4 m/s 756 mmHg 81%
16:00 +20°C° 0.2 mm 3 m/s 755 mmHg 82%
17:00 +20°C° 0.2 mm 3 m/s 755 mmHg 84%
18:00 +20°C° 0.2 mm 3 m/s 755 mmHg 86%
19:00 +19°C° 0.1 mm 3 m/s 755 mmHg 89%
20:00 +18°C° 0.1 mm 3 m/s 755 mmHg 91%
21:00 +17°C° 0.1 mm 2 m/s 755 mmHg 94%
22:00 +16°C° 0 mm 2 m/s 755 mmHg 95%
23:00 +15°C° 0 mm 2 m/s 755 mmHg 96%

17 Iulie, Vineri

Timp Temperatura Precipitaţii Vânt Presiune Umiditate
00:00 +14°C° 0 mm 3 m/s 755 mmHg 97%
01:00 +15°C° 0 mm 2 m/s 755 mmHg 97%
02:00 +14°C° 0 mm 2 m/s 755 mmHg 97%
03:00 +14°C° 0 mm 2 m/s 755 mmHg 98%
04:00 +14°C° 0 mm 2 m/s 756 mmHg 97%
05:00 +15°C° 0 mm 2 m/s 756 mmHg 97%
06:00 +15°C° 0 mm 2 m/s 756 mmHg 97%
07:00 +16°C° 0 mm 2 m/s 756 mmHg 95%
08:00 +16°C° 0 mm 2 m/s 756 mmHg 93%
09:00 +17°C° 0 mm 2 m/s 756 mmHg 91%
10:00 +18°C° 0.1 mm 2 m/s 757 mmHg 88%
11:00 +19°C° 0.1 mm 3 m/s 757 mmHg 86%
12:00 +20°C° 0.1 mm 3 m/s 757 mmHg 83%
13:00 +19°C° 0.1 mm 3 m/s 757 mmHg 86%
14:00 +19°C° 0.1 mm 2 m/s 757 mmHg 88%
15:00 +18°C° 0.1 mm 2 m/s 757 mmHg 91%
16:00 +19°C° 0.1 mm 2 m/s 757 mmHg 91%
17:00 +19°C° 0.1 mm 2 m/s 757 mmHg 91%
18:00 +19°C° 0.1 mm 2 m/s 757 mmHg 92%
19:00 +19°C° 0.1 mm 2 m/s 757 mmHg 93%
20:00 +18°C° 0.1 mm 2 m/s 757 mmHg 94%
21:00 +18°C° 0.1 mm 2 m/s 757 mmHg 95%
22:00 +17°C° 0 mm 2 m/s 757 mmHg 95%
23:00 +16°C° 0 mm 3 m/s 757 mmHg 96%
Arată mai mult